[[{"header":{"parameterUnit":"m.s-1","parameterCategory":1,"la1":30.2991,"la2":30.254,"lo1":-89.0895,"lo2":-89.0444,"dy":0.0017,"dx":0.0017,"nx":28,"ny":28,"refTime":"2023-11-03T03:00:00:Z","depth":0,"parameterNumber":2,"parameterNumberName":"U-component_of_WINDS"},"data":[0,0,0,0,0,0,0,0,0,0,0,0,0,0,0,0,0,0,0,0,0,0,0,0,0,0,0,0,0,0,0,0,0,0,0,0,0,0,0,0,0,0,0,0,0,0,0,0,0,0,0,0,0,0,0,0,0,0,-4.7507,-4.7508,0,-4.7636,-4.7638,-4.7639,-4.7524,-4.7519,-4.7514,-4.751,-4.7641,-4.7648,-4.7656,0,0,0,0,0,0,0,0,0,0,0,0,0,-4.7158,-4.7165,-4.7507,-4.7508,-4.751,-4.7636,-4.7638,-4.7639,-4.7524,-4.7519,-4.7513,-4.7508,-4.7638,-4.7647,-4.7657,0,0,0,0,0,0,0,0,0,0,0,0,0,-4.73,-4.7167,-4.7506,-4.7468,-4.7466,-4.7636,-4.7638,-4.764,-4.7526,-4.7519,-4.7511,-4.7505,-4.7635,-4.7646,-4.7658,-4.7872,0,0,-4.7694,-4.7699,0,0,0,0,0,0,0,0,-4.7292,-4.7313,-4.7472,-4.7471,-4.7469,-4.7557,-4.7562,-4.7718,-4.7527,-4.7503,-4.751,-4.7501,-4.7618,-4.7631,-4.7671,-4.7878,-4.7884,-4.7695,-4.7702,-4.7707,-4.7711,0,0,0,0,0,0,0,-4.7283,-4.7307,-4.7558,-4.7474,-4.7472,-4.7443,-4.7456,-4.7591,-4.7598,-4.7504,-4.7496,-4.7513,-4.7616,-4.766,-4.7673,-4.7886,-4.7695,-4.7705,-4.7713,-4.7717,-4.8275,-4.8282,0,0,0,0,0,0,-4.7277,-4.73,-4.7554,-4.7562,-4.7361,-4.7455,-4.7469,-4.7535,-4.7597,-4.7599,-4.7519,-4.7507,-4.7643,-4.7659,-4.7677,-4.7931,-4.7707,-4.7718,-4.7725,-4.8267,-4.8277,-4.8285,0,0,0,0,0,0,-4.727,-4.7301,-4.7548,-4.7429,-4.7458,-4.7469,-4.7544,-4.7542,-4.7585,-4.7608,-4.7608,-4.7563,-4.7638,-4.766,-4.7825,-4.7934,-4.7724,-4.7734,-4.8258,-4.827,-4.8281,-4.8442,0,0,0,0,0,0,-4.7261,-4.7299,-4.7381,-4.7431,-4.7465,-4.7695,-4.7551,-4.7549,-4.7606,-4.7592,-4.7649,-4.7651,-4.7634,-4.7808,-4.7836,-4.7947,-4.7744,-4.8248,-4.8263,-4.8277,-4.8427,-4.8457,-4.8484,0,0,0,0,0,-4.7249,-4.7421,-4.7386,-4.7417,-4.7568,-4.7701,-4.772,-4.7697,-4.7615,-4.7697,-4.7712,-4.765,-4.7918,-4.7825,-4.7857,-4.7972,-4.8241,-4.8259,-4.8276,-4.8414,-4.8451,-4.8483,0,0,0,0,0,0,-4.7383,-4.7427,-4.7388,-4.7582,-4.7639,-4.7682,-4.7784,-4.7738,-4.7819,-4.7802,-4.777,-4.7784,-4.7957,-4.7981,-4.7877,-4.8182,-4.8066,-4.8091,-4.816,-4.8196,-4.8224,-4.8214,-4.7753,0,0,0,0,0,-4.7435,-4.7541,-4.7573,-4.7741,-4.7772,-4.7774,-4.7831,-4.7809,-4.7866,-4.7889,-4.7915,-4.7973,-4.807,-4.8134,-4.8225,-4.843,-4.844,-4.8525,-4.8553,-4.8576,-4.8598,-4.8707,-4.8745,-4.8342,-4.8342,-4.8342,0,0,-4.7544,-4.7581,-4.765,-4.7769,-4.781,-4.792,-4.7795,-4.7916,-4.7996,-4.7907,-4.8063,-4.8085,-4.8147,-4.8333,-4.8415,-4.8358,-4.8711,-4.8599,-4.8617,-4.8626,-4.8729,-4.8767,-4.8801,-4.8354,-4.8352,-4.835,0,0,-4.7798,-4.7837,-4.7981,-4.8025,-4.809,-4.809,-4.8125,-4.8175,-4.8186,-4.8342,-4.8278,-4.8373,-4.8541,-4.8587,-4.8633,-4.8905,-4.885,-4.8936,-4.9084,-4.9191,-4.9223,-4.9251,-4.9347,-4.9382,-4.8957,-4.8957,-4.8958,0,-4.7925,-4.8088,-4.8061,-4.8187,-4.8241,-4.8166,-4.8311,-4.8355,-4.8446,-4.8485,-4.8419,-4.8628,-4.8664,-4.8859,-4.8926,-4.8966,-4.9003,-4.8928,-4.9221,-4.9248,-4.9274,-4.9365,-4.9402,-4.8967,-4.8966,-4.8965,-4.8964,0,-4.824,-4.8354,-4.8462,-4.8552,-4.8619,-4.8754,-4.8747,-4.8817,-4.8789,-4.8796,-4.8956,-4.8998,-4.9095,-4.914,-4.9113,-4.9331,-4.9293,-4.9225,-4.9108,-4.9323,-4.9408,-4.9443,-4.8981,-4.8978,-4.8975,-4.8972,0,0,-4.8581,-4.8655,-4.8695,-4.8735,-4.8801,-4.8888,-4.9019,-4.9115,-4.9176,-4.9241,-4.9349,-4.9494,-4.9431,-4.9483,-4.9461,-4.9555,-4.9767,-4.9475,-4.9476,-4.9527,-5.0009,-5.0059,-5.01,-4.9732,-4.9739,-4.9744,-5.0003,0,-4.8837,-4.9066,-4.9046,-4.9262,-4.9367,-4.9298,-4.9412,-4.9464,-4.9474,-4.9564,-4.9574,-4.9677,-4.9587,-4.9618,-4.9708,-4.9723,-4.9863,-4.9704,-4.9832,-4.9837,-4.9817,-5.0145,-5.0198,-5.0441,-5.0036,-5.0042,-5.0046,0,-4.9166,-4.9243,-4.947,-4.952,-4.9563,-4.9666,-4.9752,-4.9839,-4.9897,-4.9897,-4.9956,-4.9918,-5.0049,-4.993,-5.011,-5.0002,-5.0053,-5.0069,-5.0077,-5.0087,-4.9954,-5.0163,-5.0518,-5.0554,-5.0099,-5.0094,-5.0091,0,-4.9391,-4.9552,-4.9708,-4.9744,-4.9807,-4.9881,-4.991,-4.996,-5.0019,-5.0094,-5.0132,-5.0221,-5.027,-5.034,-5.0327,-5.0241,-5.0511,-5.039,-5.0514,-5.0515,-5.0573,-5.0569,-5.0941,-5.0608,-5.0608,-5.0607,-5.0606,0,-4.9678,-4.9819,-4.981,-4.9906,-5.0063,-5.0038,-5.0193,-5.0213,-5.0259,-5.0357,-5.0303,-5.0396,-5.0374,-5.0467,-5.0458,-5.0608,-5.063,-5.0634,-5.063,-5.0638,-5.0638,-5.067,-5.0653,-5.0617,-5.0615,-5.0613,-5.0611,0,-4.9955,-4.9955,-5.0121,-5.0166,-5.0181,-5.0294,-5.0332,-5.0423,-5.0428,-5.0554,-5.0581,-5.0591,-5.0697,-5.0691,-5.0811,-5.0805,-5.099,-5.0966,-5.0971,-5.0965,-5.1089,-5.1077,-5.1493,-5.1546,-5.1181,-5.1184,-5.1187,0,-5.0138,-5.0245,-5.0302,-5.0364,-5.0399,-5.05,-5.0559,-5.0539,-5.0604,-5.0678,-5.0759,-5.086,-5.094,-5.1113,-5.113,-5.1221,-5.1199,-5.1338,-5.1212,-5.1217,-5.1199,-5.1193,-5.1203,-5.1363,-5.1367,-5.137,-5.1373,0,-5.0461,-5.0456,-5.0545,-5.0634,-5.0707,-5.0776,-5.0839,-5.0893,-5.0879,-5.0955,-5.1063,-5.1125,-5.1247,-5.1348,-5.1436,-5.1464,-5.1417,-5.1413,-5.1446,-5.1455,-5.1453,-5.1455,-5.1037,-5.1403,-5.14,-5.1398,-5.1396,-5.1395,-5.0696,-5.0788,-5.0842,-5.0943,-5.0988,-5.1049,-5.1136,-5.1153,-5.1243,-5.1341,-5.1324,-5.1445,-5.15,-5.1612,-5.165,-5.1743,-5.1693,-5.1742,-5.1754,-5.1766,-5.1779,-5.1439,-5.1759,-5.1759,-5.1758,-5.1757,-5.1756,0,-5.1016,-5.1047,-5.114,-5.1231,-5.131,-5.1259,-5.1326,-5.1395,-5.1503,-5.1558,-5.1638,-5.1762,-5.1859,-5.1885,-5.1978,-5.2049,-5.2029,-5.2074,-5.2068,-5.2075,-5.1819,-5.1781,-5.2088,-5.2088,-5.2088,-5.2088,-5.2088,-5.2088,-5.1191,-5.1344,-5.1345,-5.1519,-5.155,-5.1668,-5.1711,-5.1766,-5.181,-5.1951,-5.2032,-5.2048,-5.2091,-5.2188,-5.2275,-5.2279,-5.2316,-5.237,-5.2366,-5.2126,-5.2093,-5.2061,-5.2025,-5.2378,-5.2378,-5.2613,-5.2615,-5.2617]},{"header":{"parameterUnit":"m.s-1","parameterCategory":1,"la1":30.2991,"la2":30.254,"lo1":-89.0895,"lo2":-89.0444,"dy":0.0017,"dx":0.0017,"nx":28,"ny":28,"refTime":"2023-11-03T03:00:00:Z","depth":0,"parameterNumber":3,"parameterNumberName":"V-component_of_WINDS"},"data":[0,0,0,0,0,0,0,0,0,0,0,0,0,0,0,0,0,0,0,0,0,0,0,0,0,0,0,0,0,0,0,0,0,0,0,0,0,0,0,0,0,0,0,0,0,0,0,0,0,0,0,0,0,0,0,0,0,0,-1.1815,-1.1815,0,-1.1793,-1.1793,-1.1792,-1.1787,-1.1787,-1.1787,-1.1787,-1.1765,-1.1764,-1.1764,0,0,0,0,0,0,0,0,0,0,0,0,0,-1.1852,-1.1851,-1.1815,-1.1815,-1.1814,-1.1793,-1.1793,-1.1792,-1.1787,-1.1787,-1.1787,-1.1787,-1.1765,-1.1765,-1.1764,0,0,0,0,0,0,0,0,0,0,0,0,0,-1.1833,-1.1851,-1.1815,-1.1809,-1.1808,-1.1793,-1.1793,-1.1792,-1.1787,-1.1787,-1.1787,-1.1787,-1.1766,-1.1765,-1.1764,-1.1753,0,0,-1.176,-1.176,0,0,0,0,0,0,0,0,-1.1834,-1.1832,-1.181,-1.1809,-1.1808,-1.1793,-1.1797,-1.1779,-1.1787,-1.1795,-1.1787,-1.1787,-1.1774,-1.1772,-1.1768,-1.1752,-1.1751,-1.176,-1.176,-1.1759,-1.1759,0,0,0,0,0,0,0,-1.1836,-1.1833,-1.1806,-1.181,-1.1809,-1.1807,-1.1805,-1.1794,-1.1784,-1.1794,-1.1794,-1.1791,-1.1774,-1.1769,-1.1767,-1.175,-1.176,-1.1759,-1.1759,-1.1758,-1.1723,-1.1723,0,0,0,0,0,0,-1.1838,-1.1834,-1.1807,-1.1805,-1.1822,-1.1806,-1.1804,-1.1798,-1.1784,-1.1782,-1.1791,-1.1791,-1.1771,-1.1769,-1.1767,-1.1752,-1.1759,-1.1758,-1.1757,-1.1723,-1.1723,-1.1723,0,0,0,0,0,0,-1.1839,-1.1836,-1.1808,-1.182,-1.1816,-1.1806,-1.1799,-1.1797,-1.1792,-1.1781,-1.178,-1.1788,-1.1771,-1.1768,-1.1756,-1.1751,-1.1758,-1.1757,-1.1724,-1.1723,-1.1723,-1.1724,0,0,0,0,0,0,-1.184,-1.1836,-1.1832,-1.1819,-1.1815,-1.1798,-1.1798,-1.1796,-1.179,-1.179,-1.1778,-1.1776,-1.1771,-1.1758,-1.1755,-1.175,-1.1756,-1.1724,-1.1724,-1.1723,-1.1724,-1.1723,-1.1723,0,0,0,0,0,-1.1841,-1.1833,-1.1832,-1.1828,-1.181,-1.1797,-1.1795,-1.1789,-1.179,-1.1786,-1.1778,-1.1777,-1.1752,-1.1756,-1.1753,-1.1748,-1.1724,-1.1724,-1.1723,-1.1724,-1.1724,-1.1723,0,0,0,0,0,0,-1.1846,-1.1832,-1.183,-1.1818,-1.1809,-1.1796,-1.1791,-1.1788,-1.1779,-1.1779,-1.1772,-1.1769,-1.1757,-1.1751,-1.1756,-1.1736,-1.1738,-1.1737,-1.174,-1.1739,-1.1739,-1.174,-1.1755,0,0,0,0,0,-1.1845,-1.1836,-1.1824,-1.1815,-1.181,-1.1801,-1.1796,-1.1791,-1.1782,-1.1778,-1.177,-1.1761,-1.1751,-1.1745,-1.1736,-1.1723,-1.172,-1.1718,-1.1717,-1.1717,-1.1716,-1.1708,-1.1707,-1.1721,-1.1721,-1.1721,0,0,-1.1844,-1.1836,-1.183,-1.1816,-1.1808,-1.1799,-1.1798,-1.1789,-1.1781,-1.1777,-1.1765,-1.1758,-1.1748,-1.1735,-1.1729,-1.173,-1.1711,-1.1716,-1.1716,-1.1715,-1.1707,-1.1706,-1.1705,-1.172,-1.172,-1.172,0,0,-1.1838,-1.1831,-1.1821,-1.1814,-1.1802,-1.1796,-1.1794,-1.1782,-1.1777,-1.1765,-1.1761,-1.1752,-1.1736,-1.1728,-1.1722,-1.1711,-1.1709,-1.1708,-1.1705,-1.1697,-1.1696,-1.1695,-1.1691,-1.1689,-1.1707,-1.1707,-1.1707,0,-1.1838,-1.1824,-1.1817,-1.1807,-1.18,-1.1795,-1.1786,-1.1779,-1.1765,-1.176,-1.1761,-1.1739,-1.1732,-1.1717,-1.1714,-1.171,-1.1707,-1.171,-1.1697,-1.1696,-1.1695,-1.169,-1.1689,-1.1707,-1.1707,-1.1707,-1.1707,0,-1.1824,-1.1814,-1.1808,-1.1794,-1.1787,-1.1777,-1.1769,-1.1762,-1.1758,-1.1752,-1.1739,-1.1729,-1.1717,-1.1714,-1.171,-1.1698,-1.1699,-1.1698,-1.17,-1.1693,-1.1689,-1.1687,-1.1707,-1.1707,-1.1707,-1.1707,0,0,-1.1821,-1.1802,-1.18,-1.1793,-1.178,-1.1772,-1.1762,-1.175,-1.1744,-1.1734,-1.1725,-1.171,-1.171,-1.1703,-1.1698,-1.1692,-1.1683,-1.1692,-1.1692,-1.169,-1.1667,-1.1667,-1.1666,-1.1681,-1.1681,-1.168,-1.1668,0,-1.1812,-1.1793,-1.1786,-1.1771,-1.1761,-1.1756,-1.1747,-1.1737,-1.1731,-1.1721,-1.1714,-1.1704,-1.1704,-1.17,-1.1693,-1.1685,-1.1678,-1.1686,-1.1672,-1.1672,-1.1674,-1.1663,-1.1663,-1.1652,-1.1666,-1.1666,-1.1666,0,-1.18,-1.1789,-1.1773,-1.1759,-1.1755,-1.1747,-1.1735,-1.1726,-1.1715,-1.171,-1.1702,-1.1698,-1.1686,-1.1689,-1.1673,-1.1678,-1.1672,-1.1667,-1.1667,-1.1665,-1.1668,-1.1661,-1.1649,-1.1647,-1.1663,-1.1664,-1.1664,0,-1.1798,-1.178,-1.1767,-1.1761,-1.1746,-1.174,-1.1733,-1.1722,-1.1715,-1.1704,-1.17,-1.1688,-1.1681,-1.1672,-1.1665,-1.1667,-1.1649,-1.1651,-1.1645,-1.1645,-1.1641,-1.1641,-1.1627,-1.1638,-1.1638,-1.1638,-1.1638,0,-1.1789,-1.1779,-1.1766,-1.1758,-1.1746,-1.1738,-1.1727,-1.172,-1.171,-1.17,-1.1695,-1.1686,-1.1677,-1.1667,-1.1661,-1.1648,-1.1645,-1.1641,-1.1639,-1.1641,-1.1641,-1.1637,-1.1637,-1.1637,-1.1637,-1.1637,-1.1638,0,-1.1785,-1.1776,-1.1762,-1.1747,-1.1744,-1.1736,-1.1723,-1.1715,-1.1708,-1.1696,-1.1693,-1.1682,-1.167,-1.1661,-1.1646,-1.1641,-1.1627,-1.1626,-1.1631,-1.163,-1.1623,-1.1624,-1.1606,-1.1602,-1.1616,-1.1616,-1.1615,0,-1.1779,-1.1771,-1.1756,-1.1749,-1.1742,-1.1731,-1.1723,-1.1715,-1.1707,-1.1693,-1.1686,-1.1674,-1.1663,-1.1643,-1.1634,-1.1622,-1.162,-1.1614,-1.1618,-1.162,-1.1619,-1.1619,-1.1618,-1.1614,-1.1614,-1.1613,-1.1613,0,-1.177,-1.1766,-1.1755,-1.1742,-1.1733,-1.1723,-1.1712,-1.1707,-1.1696,-1.1688,-1.1675,-1.1666,-1.165,-1.1637,-1.1623,-1.1616,-1.1613,-1.1612,-1.161,-1.1611,-1.1614,-1.1612,-1.1628,-1.1613,-1.1613,-1.1613,-1.1613,-1.1613,-1.1765,-1.1757,-1.1745,-1.1733,-1.1724,-1.1714,-1.1705,-1.1696,-1.1685,-1.1671,-1.1667,-1.1653,-1.1641,-1.1622,-1.1615,-1.1604,-1.1604,-1.1601,-1.16,-1.16,-1.1599,-1.1616,-1.1602,-1.1602,-1.1602,-1.1602,-1.1602,0,-1.1755,-1.1747,-1.1736,-1.1721,-1.1711,-1.1708,-1.1696,-1.1688,-1.1675,-1.1665,-1.1654,-1.1638,-1.1625,-1.1614,-1.1601,-1.1594,-1.1592,-1.1591,-1.1591,-1.1589,-1.16,-1.1603,-1.1593,-1.1593,-1.1593,-1.1593,-1.1593,-1.1593,-1.1749,-1.1735,-1.1729,-1.1711,-1.1702,-1.1688,-1.1682,-1.1672,-1.1663,-1.1646,-1.1635,-1.1628,-1.1617,-1.1602,-1.159,-1.1587,-1.1582,-1.1581,-1.1578,-1.1588,-1.1589,-1.159,-1.1592,-1.158,-1.158,-1.1568,-1.1568,-1.1568]}]]